Regional Weather Roundup
Issued by NWS Sioux Falls, SD

Home | Current Version | Previous Version | Text Only | Print | Product List | Glossary On
Versions: 1 2 3 4 5 6 7 8 9 10 11 12 13 14 15 16 17 18 19 20 21 22 23 24 25 26 27 28 29 30 31 32 33 34 35 36 37 38 39 40 41 42 43 44 45 46 47 48 49 50
000
ASUS43 KFSD 261010
RWRFSD

WEATHER ROUNDUP FOR SE SOUTH DAKOTA/SW MINNESOTA/NW IOWA
NATIONAL WEATHER SERVICE SIOUX FALLS SD
500 AM CDT TUE MAY 26 2015

NOTE: "FAIR" INDICATES FEW OR NO CLOUDS BELOW 12,000 FEET WITH NO
SIGNIFICANT WEATHER AND OR OBSTRUCTIONS TO VISIBILITY.


SDZ038>040-050-052>070-261100-
SOUTHEAST SOUTH DAKOTA

CITY           SKY/WX    TMP DP  RH WIND       PRES   REMARKS
BROOKINGS      CLOUDY    52  50  93 N6        29.85S
CHAMBERLAIN    CLOUDY    54  50  87 N8        29.88R
HURON          MOCLDY    52  49  89 N10       29.86S
MADISON        FAIR      50  50 100 N13       29.84S
MITCHELL       MOCLDY    53  50  89 N14       29.85R
SIOUX FALLS    CLOUDY    55  52  89 N9        29.80F
WINNER         CLOUDY    53  49  86 NW6       29.89S
YANKTON        CLOUDY    55  54  94 NW12      29.79S
$$

MNZ071-072-080-081-089-090-097-098-261100-
SOUTHWEST MINNESOTA

CITY           SKY/WX    TMP DP  RH WIND       PRES   REMARKS
FAIRMONT       CLOUDY    57  52  82 N5        29.79R
JACKSON        CLOUDY    55  54  94 N5        29.80S
LUVERNE        DRIZZLE   55  54  94 NE8       29.80S
MARSHALL       CLOUDY    55  48  76 N10       29.82S
MONTEVIDEO     CLOUDY    55  54  94 NE7       29.85R
REDWOOD FALLS  LGT RAIN  55  53  93 NW7       29.80S
TRACY          CLOUDY    56  54  94 N6        29.82S
WINDOM         CLOUDY    55  54  94 N7        29.81S
WORTHINGTON    CLOUDY    55  52  88 N8        29.80F
$$

IAZ001>003-012>014-020>022-031-032-NEZ013-014-SDZ071-261100-
NORTHWEST IOWA

CITY           SKY/WX    TMP DP  RH WIND       PRES   REMARKS
CHEROKEE       CLOUDY    60  59  98 CALM      29.77S
DENISON        CLOUDY    61  61 100 SE7       29.78F
ESTHERVILLE    CLOUDY    57  56  96 N6        29.79S
LE MARS        CLOUDY    61  61 100 NE6       29.77S
ORANGE CITY    CLOUDY    57  55  94 CALM      29.77F
SHELDON        RAIN      57  57 100 NE9G17    29.76F
SIOUX CITY     CLOUDY    63  59  88 CALM      29.76R FOG
SPENCER        CLOUDY    60  58  92 NE8       29.78S
STORM LAKE     CLOUDY    61  57  88 W6        29.79S
$$

ABBREVIATIONS USED IN REMARKS
   TC - TEMPERATURE IN CELSIUS
  WCI - WIND CHILL INDEX
   HX - HEAT INDEX
  VSB - VISIBILITY




USA.gov is the U.S. government's official web portal to all federal, state and local government web resources and services.